Wind_Speed
16 17 18 17 16 15 13 12 10 9 8 8 8 8 8 8 8 7 7 7 6 6 5 6 6 6 6 6 7 9 10 11 11 11 11 11 11 10 10 11 11 12 12 13 14 14 15 16 17
14 15 14 14 13 10 12 13 11 10 9 9 9 9 8 9 9 9 8 7 6 6 6 6 5 4 4 4 5 6 7 9 9 9 10 10 10 10 10 11 11 12 13 14 15 15 16 17 18
12 12 11 10 10 10 11 12 11 10 9 8 8 7 8 8 9 9 9 8 7 6 6 6 5 4 3 3 4 4 6 7 8 8 8 9 9 9 10 10 11 12 13 14 15 16 17 18 19
10 10 9 9 9 11 11 10 9 8 8 7 6 5 7 8 9 9 9 8 7 6 6 5 4 3 1 1 2 3 4 5 6 6 6 6 7 8 9 10 11 12 13 14 15 16 17 18 19
9 9 10 10 10 10 10 9 8 7 7 5 3 3 6 8 9 9 9 8 6 6 6 5 3 2 1 1 2 3 3 4 5 5 6 6 7 8 10 11 12 13 14 15 16 17 18 19 20
9 10 12 11 11 11 10 9 7 7 5 3 1 3 6 8 10 10 9 8 6 5 4 3 2 2 1 2 3 3 4 4 5 6 7 8 9 10 11 13 14 15 16 16 17 18 18 20 21
9 12 14 14 13 12 10 9 9 7 5 3 0 3 6 9 10 10 10 9 7 5 4 3 2 2 3 3 4 5 6 7 8 9 10 10 11 12 13 14 15 15 16 17 17 18 20 21 22
9 12 14 15 14 12 10 9 9 8 6 4 0 3 7 9 11 11 11 9 8 6 5 3 3 4 5 5 6 8 8 9 10 11 12 12 13 14 14 14 15 15 16 17 18 19 21 22 24
9 12 14 16 15 13 10 9 7 7 6 4 2 4 7 10 11 12 12 10 9 8 7 5 5 5 6 7 8 9 10 11 12 13 13 14 14 14 14 15 16 17 18 18 19 20 21 23 24
11 13 16 15 15 13 11 9 7 7 7 6 5 5 7 10 12 13 12 12 11 10 9 7 7 7 7 8 8 10 11 12 13 14 15 15 15 15 16 17 18 18 19 19 19 20 21 22 22
12 14 14 15 15 14 12 10 8 8 7 6 6 6 7 10 12 12 13 12 12 11 10 10 9 9 9 10 10 11 12 13 14 15 15 16 16 16 18 18 18 18 18 18 19 20 21 22 23
15 15 15 15 15 15 14 12 11 9 7 8 9 8 9 10 12 13 14 13 13 12 11 11 11 11 11 11 11 11 12 13 14 15 15 16 15 16 17 17 17 17 18 19 20 21 22 24 25
19 19 18 18 17 17 16 14 14 13 11 11 11 11 11 12 13 14 15 15 15 14 13 13 13 12 12 11 11 11 11 12 13 14 14 14 14 15 15 15 16 17 18 20 22 24 26 28 30
24 22 22 21 20 19 18 18 18 18 15 14 14 13 13 14 15 16 16 17 16 16 15 15 14 14 13 11 10 10 10 11 12 13 13 13 13 14 14 15 17 18 20 22 24 26 29 31 33
27 26 25 26 25 23 21 22 23 22 20 18 17 17 17 17 19 19 19 19 19 18 17 17 17 16 14 12 11 10 10 11 12 13 14 15 15 15 16 16 17 19 20 23 25 28 31 34 37
30 29 30 31 30 28 25 23 28 26 24 22 21 20 21 21 22 23 23 22 21 21 20 20 19 18 17 15 13 12 12 13 15 17 18 19 19 19 20 20 21 23 24 26 29 32 35 38 40
32 33 33 34 35 33 30 28 34 29 29 27 25 24 24 26 27 27 26 25 24 23 23 22 22 21 20 18 16 16 15 16 19 20 22 23 24 25 25 25 27 28 30 32 35 38 40 43 45
35 37 38 38 39 37 37 37 38 35 34 33 31 29 28 29 30 31 29 28 27 27 26 25 25 25 24 22 20 19 19 20 22 23 25 26 28 29 30 31 32 34 36 38 40 43 45 47 49
38 37 39 41 43 40 42 43 42 40 38 37 36 34 32 32 32 32 31 31 31 30 30 29 30 30 29 27 25 23 22 23 25 27 28 30 31 32 33 35 37 38 40 42 45 47 49 51 52
36 37 38 40 42 43 47 48 46 44 42 41 40 38 36 35 33 31 31 33 33 34 34 34 34 35 34 31 29 27 26 27 28 30 32 33 35 36 37 39 41 42 44 46 48 50 52 54 55
34 35 36 38 41 43 47 48 47 48 46 45 43 41 40 38 35 32 33 35 35 36 37 37 37 38 37 35 34 32 32 33 32 33 35 36 38 39 41 43 45 47 49 50 51 52 54 57 58
34 35 36 38 39 41 45 48 43 46 45 44 43 42 41 40 37 35 35 36 37 38 39 39 39 39 40 39 38 36 37 37 38 39 41 42 43 44 46 47 48 49 51 53 54 55 57 58 59
34 36 37 38 40 42 45 47 42 45 45 40 39 40 40 40 39 38 37 37 39 40 41 42 42 42 42 42 40 40 41 41 42 44 46 48 49 50 50 51 52 53 54 54 56 57 58 59 59
31 34 36 38 40 44 43 44 43 38 43 38 37 38 38 39 40 40 39 40 41 42 44 45 44 44 44 44 43 43 44 44 47 49 50 52 52 53 53 53 54 54 54 55 57 58 59 59 59
29 30 32 34 36 38 36 41 40 38 39 37 36 36 35 36 36 37 38 39 41 43 44 45 45 45 45 44 44 44 46 47 49 51 52 54 54 53 52 52 53 54 54 56 58 58 59 59 59
30 30 31 32 28 27 29 35 32 35 35 33 32 32 32 31 32 33 35 36 37 39 41 42 42 43 43 43 44 45 47 48 50 52 52 52 51 51 51 52 53 53 55 57 57 58 58 58 58
29 30 31 33 34 35 33 32 33 34 32 30 29 29 30 30 31 31 32 32 32 34 36 38 39 41 41 43 44 45 46 48 49 50 50 50 50 52 52 53 54 56 56 57 56 57 57 58 58
28 28 30 32 33 34 33 30 27 25 24 25 26 26 27 27 28 28 28 29 30 32 34 36 38 39 40 41 42 44 45 47 48 50 51 52 53 53 53 54 55 55 56 55 56 56 57 57 58
29 29 30 30 30 30 29 25 24 27 27 25 25 25 25 25 26 27 28 29 30 31 33 36 37 38 39 41 43 45 48 50 51 52 52 53 54 53 53 53 54 54 55 55 56 56 57 58 58
31 31 30 30 30 30 30 27 27 31 30 28 27 28 28 27 28 29 30 31 32 33 35 36 37 39 41 43 46 48 50 52 53 53 54 54 53 53 52 52 53 54 55 55 56 56 57 58 59
Wind_Direction
211 215 221 225 224 226 229 233 241 255 270 281 289 299 312 323 329 325 319 319 319 321 324 321 315 304 294 283 271 261 254 251 250 251 255 259 263 264 263 264 266 266 266 265 265 264 263 262 260
211 214 219 221 217 217 230 230 235 248 267 279 290 303 317 330 338 343 341 339 339 345 347 344 336 323 303 280 265 251 242 240 241 245 252 258 264 266 267 269 270 270 270 270 269 269 269 269 268
212 211 208 207 200 193 209 217 228 244 262 276 291 307 325 337 346 344 341 338 336 340 347 350 346 341 323 274 247 236 234 235 239 245 252 259 265 267 270 273 275 275 276 277 277 277 276 276 275
209 201 189 180 172 182 192 203 219 238 255 271 288 317 337 346 347 344 337 328 327 328 331 329 324 331 338 239 215 224 231 236 242 249 258 267 272 276 278 279 280 280 281 281 281 281 279 279 279
192 179 172 165 166 177 186 199 215 235 244 258 287 343 358 356 352 349 343 333 326 324 321 312 299 298 281 203 210 213 224 238 246 253 264 272 276 281 284 286 286 286 285 285 285 284 282 281 281
180 171 164 160 174 182 194 211 229 235 234 247 292 10 10 0 358 358 356 353 348 341 327 310 283 281 278 251 242 238 242 252 260 266 271 274 279 282 286 287 287 287 286 286 285 284 282 281 280
178 173 169 173 184 194 209 226 236 238 235 231 267 23 17 10 9 4 3 9 8 1 352 337 312 298 291 284 277 274 273 274 274 276 280 283 285 287 288 290 289 288 288 287 287 285 283 281 281
187 178 176 183 193 208 225 240 249 249 241 235 249 26 23 19 17 10 7 12 13 10 4 1 345 317 302 298 295 292 290 288 288 289 291 292 292 292 291 291 291 290 289 288 288 286 285 283 282
204 190 189 196 203 216 232 248 260 266 265 268 312 4 14 16 18 13 9 7 8 6 1 1 348 331 318 312 306 303 301 298 298 299 299 299 298 297 297 296 294 293 292 291 290 288 287 286 285
219 205 206 208 216 225 235 249 268 286 296 297 311 335 352 3 8 8 7 4 1 359 354 346 342 334 324 321 318 313 310 307 304 302 302 303 303 303 304 302 300 298 298 298 296 295 293 292 292
229 221 217 217 225 232 241 251 267 292 307 304 305 314 331 346 351 356 358 358 353 348 344 340 336 331 328 323 319 316 313 311 309 305 305 308 307 306 306 305 305 304 304 304 303 301 299 298 297
236 235 230 228 230 236 243 252 263 283 285 282 282 292 310 327 334 337 343 347 345 339 334 333 332 331 329 325 322 320 317 316 315 313 310 310 309 308 307 306 305 305 304 304 303 301 299 298 296
239 240 238 237 237 239 244 251 260 269 273 284 288 293 300 307 314 319 324 330 333 333 328 326 327 327 327 324 322 324 323 321 319 318 315 313 310 309 307 305 304 305 305 305 304 303 301 300 298
240 243 244 244 244 245 247 253 258 263 272 286 291 291 291 292 299 305 309 315 318 320 321 321 320 320 321 320 319 319 321 321 321 320 318 315 311 308 305 304 305 305 306 307 307 307 305 303 301
242 244 246 247 248 248 251 255 258 262 270 282 289 287 284 283 289 293 295 301 305 307 310 313 314 313 311 309 307 308 313 316 317 317 316 314 312 309 306 306 305 306 307 309 310 310 308 306 303
242 243 243 246 248 251 251 253 259 262 267 275 283 283 281 278 279 281 285 290 294 296 300 303 305 303 300 298 294 295 300 304 308 310 311 310 308 305 303 302 302 303 304 307 309 311 310 308 305
242 242 240 244 250 251 251 244 256 260 263 269 275 278 277 275 274 276 280 282 284 287 291 294 296 294 291 288 287 287 291 296 302 304 306 306 303 301 300 299 299 299 300 302 305 306 307 306 304
239 238 238 239 249 250 251 251 258 259 261 265 270 273 274 273 272 273 275 277 277 280 283 287 288 286 284 280 280 281 287 294 299 301 301 301 298 296 296 297 296 296 297 299 301 302 303 303 302
238 238 239 240 248 251 251 253 257 259 261 264 267 270 272 271 271 271 272 272 273 275 277 280 282 283 280 276 274 279 284 291 296 299 299 298 295 293 294 295 294 294 295 297 299 300 301 302 301
242 242 241 244 250 250 251 253 257 260 262 264 266 269 272 272 272 270 269 269 270 272 274 277 280 282 280 279 277 282 288 295 297 298 299 299 295 292 293 294 295 294 295 296 299 299 300 300 300
243 244 244 245 248 250 253 255 257 261 261 264 266 269 271 272 272 269 267 268 269 270 271 274 278 282 284 285 286 290 294 297 297 299 299 300 298 296 295 295 296 296 296 297 298 299 299 299 298
246 246 246 246 247 250 253 255 255 261 262 263 266 269 271 271 271 268 267 268 269 269 271 275 279 283 286 288 290 293 296 298 299 300 300 300 300 300 299 299 299 298 297 297 298 298 298 298 298
250 249 249 249 250 251 255 260 260 262 267 268 268 269 269 269 270 269 269 268 268 270 273 276 279 283 286 288 290 293 296 297 298 299 301 301 300 301 301 301 301 300 299 298 298 298 298 298 297
257 257 256 255 254 255 257 262 265 266 270 271 270 269 268 268 268 269 269 269 269 272 275 277 279 283 285 287 289 293 294 295 298 300 301 302 301 301 302 302 302 300 299 298 298 297 297 296 295
261 260 260 260 260 263 264 263 266 264 270 272 271 270 270 269 270 270 271 271 271 273 276 278 280 282 284 286 289 291 293 296 299 300 301 302 302 302 302 303 302 300 298 297 296 296 295 295 294
263 261 259 260 261 264 266 269 269 268 272 273 272 271 270 271 272 273 273 274 274 274 275 277 279 281 283 285 288 290 294 297 299 300 302 304 304 303 303 304 303 300 298 296 296 295 295 294 293
263 265 265 264 263 263 261 264 271 277 276 273 271 270 271 272 274 277 277 277 276 276 276 278 280 281 283 286 289 293 297 300 301 302 305 306 306 305 304 303 301 299 298 297 296 296 295 295 294
261 262 262 264 267 268 270 273 278 278 277 278 277 275 274 274 275 277 277 278 278 278 278 279 281 282 285 288 292 295 299 301 301 304 306 306 306 305 303 302 300 299 298 298 297 296 295 295 294
261 260 262 264 264 265 269 271 268 268 275 279 280 278 277 277 276 276 277 278 279 279 280 282 285 287 289 291 294 297 299 301 303 304 305 305 304 303 302 301 300 299 299 298 297 297 296 296 295
253 256 258 261 264 268 270 269 269 272 277 280 280 280 280 280 279 279 279 280 282 283 286 287 289 290 292 293 296 298 301 302 302 302 304 304 304 302 302 301 300 300 299 299 298 298 297 297 297
Height
5897 5899 5900 5902 5905 5908 5910 5910 5910 5909 5909 5908 5907 5906 5905 5904 5903 5903 5899 5896 5895 5894 5893 5892 5891 5891 5890 5890 5890 5890 5890 5891 5891 5891 5891 5891 5891 5891 5891 5891 5892 5892 5893 5893 5893 5893 5894 5894 5894
5895 5897 5899 5901 5903 5908 5909 5908 5908 5908 5908 5906 5905 5904 5903 5901 5900 5898 5896 5894 5893 5892 5891 5890 5890 5889 5889 5889 5889 5889 5889 5889 5889 5889 5889 5888 5888 5888 5888 5889 5889 5889 5889 5890 5890 5890 5890 5890 5890
5894 5895 5898 5900 5902 5906 5907 5906 5907 5906 5906 5905 5904 5903 5902 5900 5899 5897 5895 5894 5892 5891 5890 5889 5889 5888 5888 5887 5887 5887 5887 5887 5887 5887 5887 5887 5886 5886 5886 5886 5886 5886 5886 5886 5886 5887 5887 5886 5886
5893 5895 5898 5900 5901 5903 5904 5905 5905 5905 5904 5904 5903 5902 5901 5900 5898 5896 5894 5893 5891 5890 5889 5888 5888 5887 5887 5886 5886 5886 5886 5886 5885 5885 5885 5885 5885 5884 5884 5884 5884 5883 5883 5883 5883 5883 5883 5883 5882
5892 5895 5897 5899 5901 5902 5903 5904 5904 5904 5903 5903 5902 5901 5900 5898 5897 5895 5893 5892 5891 5889 5888 5887 5887 5886 5885 5885 5885 5884 5884 5884 5884 5884 5884 5883 5883 5883 5882 5882 5881 5881 5881 5881 5881 5880 5880 5879 5878
5892 5895 5897 5899 5901 5901 5902 5903 5903 5903 5902 5902 5902 5901 5899 5897 5895 5894 5892 5891 5889 5888 5887 5886 5885 5885 5884 5884 5884 5883 5883 5883 5883 5882 5882 5881 5881 5881 5880 5879 5879 5879 5878 5878 5877 5877 5876 5876 5875
5892 5894 5896 5898 5900 5901 5902 5902 5902 5902 5902 5901 5901 5900 5898 5897 5895 5893 5892 5890 5889 5888 5886 5885 5884 5883 5883 5882 5882 5882 5881 5881 5881 5880 5880 5879 5879 5878 5877 5877 5876 5875 5875 5874 5874 5873 5872 5872 5871
5891 5894 5895 5897 5899 5900 5901 5901 5902 5902 5901 5901 5900 5899 5898 5896 5894 5893 5891 5890 5889 5887 5886 5885 5884 5883 5882 5881 5880 5880 5879 5879 5878 5878 5877 5876 5875 5875 5874 5873 5872 5871 5871 5870 5869 5868 5868 5867 5866
5889 5893 5894 5896 5897 5899 5900 5900 5901 5901 5900 5899 5899 5898 5897 5896 5894 5893 5891 5890 5888 5887 5886 5884 5883 5882 5880 5879 5879 5878 5877 5876 5875 5874 5874 5873 5872 5871 5870 5869 5868 5867 5866 5865 5864 5863 5862 5861 5860
5888 5891 5892 5893 5895 5897 5898 5899 5900 5899 5898 5897 5897 5897 5896 5894 5893 5892 5891 5889 5888 5887 5885 5884 5882 5881 5879 5878 5877 5875 5874 5873 5872 5871 5870 5869 5868 5867 5866 5865 5864 5863 5862 5860 5859 5858 5857 5856 5855
5886 5888 5889 5890 5892 5894 5896 5897 5898 5897 5897 5896 5895 5895 5894 5893 5892 5891 5890 5889 5887 5886 5884 5883 5881 5880 5878 5876 5875 5873 5872 5871 5870 5868 5867 5866 5865 5864 5862 5861 5860 5858 5857 5856 5854 5853 5852 5851 5849
5884 5885 5886 5887 5889 5891 5893 5895 5895 5895 5896 5896 5894 5893 5892 5892 5891 5890 5889 5888 5887 5885 5883 5882 5880 5878 5876 5875 5873 5871 5870 5868 5867 5865 5864 5863 5861 5860 5859 5857 5855 5854 5853 5851 5850 5848 5847 5845 5843
5880 5881 5882 5884 5886 5887 5889 5891 5892 5892 5893 5892 5892 5891 5891 5890 5889 5888 5887 5886 5885 5884 5882 5880 5878 5877 5875 5873 5871 5869 5868 5866 5864 5863 5861 5859 5858 5857 5855 5853 5852 5850 5849 5847 5845 5843 5841 5839 5837
5876 5878 5879 5880 5882 5884 5886 5887 5889 5889 5889 5889 5889 5888 5888 5887 5886 5885 5885 5884 5883 5882 5880 5878 5876 5875 5873 5871 5869 5867 5865 5863 5862 5860 5858 5856 5855 5853 5851 5849 5848 5846 5844 5842 5839 5837 5835 5832 5829
5872 5874 5875 5876 5877 5879 5882 5884 5884 5884 5885 5885 5886 5885 5885 5884 5883 5882 5881 5881 5880 5878 5877 5875 5873 5872 5870 5868 5866 5865 5863 5861 5859 5857 5855 5853 5851 5849 5847 5845 5843 5840 5838 5835 5833 5830 5827 5825 5821
5868 5870 5872 5872 5873 5875 5880 5881 5878 5879 5881 5881 5882 5882 5881 5881 5880 5878 5877 5877 5876 5875 5873 5872 5870 5868 5867 5865 5863 5861 5859 5857 5855 5853 5851 5849 5847 5845 5842 5840 5837 5834 5831 5829 5826 5823 5819 5816 5812
5863 5865 5868 5868 5868 5870 5874 5877 5871 5874 5876 5877 5877 5877 5877 5877 5875 5874 5873 5873 5872 5870 5869 5867 5865 5864 5862 5860 5858 5856 5854 5852 5850 5848 5846 5844 5842 5839 5836 5834 5831 5827 5824 5821 5818 5814 5810 5806 5802
5857 5859 5862 5864 5861 5865 5866 5867 5866 5869 5870 5871 5872 5872 5872 5872 5871 5869 5868 5867 5867 5865 5864 5862 5860 5858 5856 5854 5852 5850 5848 5846 5845 5843 5840 5838 5836 5833 5830 5827 5823 5820 5816 5812 5809 5804 5800 5795 5790
5847 5851 5854 5856 5854 5858 5859 5859 5860 5862 5864 5865 5866 5866 5866 5866 5865 5864 5863 5862 5861 5860 5858 5856 5854 5851 5849 5846 5844 5843 5841 5839 5838 5836 5834 5831 5828 5825 5822 5819 5815 5811 5807 5802 5798 5793 5788 5783 5778
5841 5844 5847 5850 5849 5851 5850 5851 5853 5854 5856 5858 5858 5859 5859 5859 5859 5858 5857 5856 5855 5854 5852 5850 5847 5843 5840 5838 5836 5834 5833 5831 5830 5828 5825 5823 5820 5816 5813 5809 5805 5801 5796 5792 5787 5781 5775 5769 5763
5834 5837 5840 5842 5842 5842 5843 5844 5846 5846 5848 5849 5851 5852 5852 5852 5851 5852 5850 5849 5848 5847 5845 5843 5840 5836 5833 5830 5828 5826 5825 5823 5821 5819 5816 5813 5810 5806 5803 5798 5793 5789 5784 5779 5773 5768 5761 5755 5748
5828 5830 5832 5833 5835 5835 5835 5834 5840 5837 5838 5841 5843 5844 5844 5844 5844 5844 5843 5842 5841 5839 5837 5835 5833 5829 5826 5823 5820 5818 5816 5814 5812 5809 5806 5802 5799 5795 5791 5786 5781 5776 5770 5765 5759 5753 5747 5740 5733
5820 5822 5824 5825 5826 5827 5825 5826 5832 5829 5829 5833 5835 5835 5835 5835 5835 5835 5835 5835 5833 5831 5829 5827 5825 5822 5819 5815 5812 5810 5807 5805 5802 5799 5795 5791 5787 5782 5778 5773 5768 5762 5756 5751 5745 5738 5732 5725 5718
5814 5816 5817 5817 5818 5818 5820 5820 5821 5822 5820 5825 5826 5826 5826 5826 5827 5827 5827 5827 5826 5824 5821 5819 5816 5814 5811 5807 5804 5801 5798 5795 5792 5788 5784 5779 5774 5770 5765 5760 5754 5748 5742 5736 5730 5723 5717 5710 5703
5808 5809 5810 5810 5811 5812 5813 5811 5813 5813 5813 5815 5817 5817 5817 5818 5818 5818 5818 5818 5817 5815 5812 5810 5807 5805 5802 5799 5796 5793 5789 5785 5782 5777 5773 5767 5762 5757 5752 5746 5741 5734 5728 5721 5715 5708 5701 5695 5689
5800 5802 5804 5805 5807 5808 5806 5803 5806 5803 5804 5806 5807 5808 5808 5809 5809 5809 5809 5808 5807 5805 5803 5800 5798 5795 5792 5789 5786 5783 5779 5775 5770 5766 5760 5755 5749 5744 5738 5733 5726 5720 5714 5707 5700 5693 5687 5680 5674
5793 5794 5796 5796 5796 5797 5798 5799 5798 5796 5797 5798 5799 5800 5800 5801 5801 5800 5799 5798 5797 5795 5793 5791 5788 5785 5783 5780 5776 5772 5768 5763 5759 5754 5748 5743 5737 5731 5725 5719 5712 5706 5699 5692 5685 5679 5672 5665 5659
5787 5788 5788 5788 5788 5789 5791 5792 5794 5792 5791 5791 5791 5792 5792 5792 5792 5791 5790 5789 5787 5785 5783 5781 5778 5775 5772 5769 5766 5761 5757 5752 5747 5741 5736 5730 5724 5718 5711 5705 5698 5692 5685 5678 5671 5664 5657 5651 5644
5779 5780 5780 5781 5782 5783 5784 5789 5788 5784 5784 5784 5784 5784 5784 5784 5784 5783 5782 5780 5778 5776 5774 5771 5768 5765 5762 5758 5754 5750 5746 5741 5735 5729 5724 5717 5711 5705 5698 5691 5685 5678 5671 5664 5657 5650 5643 5636 5629
5772 5773 5774 5775 5775 5775 5776 5781 5778 5776 5776 5777 5777 5777 5776 5776 5776 5774 5773 5771 5769 5767 5764 5761 5758 5755 5751 5748 5743 5739 5734 5729 5723 5717 5711 5705 5698 5692 5685 5679 5672 5665 5658 5651 5644 5636 5629 5622 5615